Back to catalog

S-Net C

S-NET C

AliveAmateur RadioSSO
NORAD 43189·PAYLOAD·🇩🇪 Germany

Launched Feb 1, 2018 from Vostochny Cosmodrome

Loading…

Next Passes (next 24 hours)

TLE

FreshSource: AMSAT

Epoch: Sep 14, 2026, 04:41 UTC

1 43189U 18014K   26257.19545971  .00003538  00000-0  18053-3 0  9991
2 43189  97.5287 161.7281 0011571  63.0640 297.1774 15.17331282470804

Track S-Net C in real time with AllMySat

Download on the App Store